Hourly Data Report for October 07, 2014

All times are specified in Local Standard Time (LST). Add 1 hour to adjust for Daylight Saving Time where and when it is observed.

QIKIQTARJUAQ A
NUNAVUT

67°32'48.000" N
64°01'54.000" W
5.50 m
2400577
YVM

Download Data

Hourly Data (October 2014)
Hourly Data Report for October 7, 2014
Temp Definition
°C
Dew Point Temp Definition
°C
Rel Hum Definition
%
Wind Dir Definition
10's deg

Wind Spd Definition
km/h
Visibility Definition
km
Stn Press Definition
kPa
Hmdx Definition


Wind Chill Definition


Weather Definition


TIME
00:00 Legend Double Dagger -0.6 -2.0 90 14 4 16.1 102.79   -2 Snow
01:00 Legend Double Dagger -0.8 -2.2 90   0 16.1 102.81     LegendNANA
02:00 Legend Double Dagger -0.2 -2.0 88   0 16.1 102.82     LegendNANA
03:00 Legend Double Dagger -0.6 -4.4 75 6 9 16.1 102.81   -4 LegendNANA
04:00 Legend Double Dagger -0.5 -4.8 73   0 16.1 102.80     LegendNANA
05:00 Legend Double Dagger -1.1 -4.3 79 12 5 16.1 102.79   -3 LegendNANA
06:00 Legend Double Dagger -1.0 -4.0 80 13 5 16.1 102.77   -3 LegendNANA
07:00 Legend Double Dagger -1.1 -4.2 80   0 16.1 102.76     LegendNANA
08:00 Legend Double Dagger -0.9 -3.8 81 19 5 16.1 102.74   -3 LegendNANA
09:00 Legend Double Dagger -0.7 -3.8 80 19 9 16.1 102.72   -4 LegendNANA
10:00 Legend Double Dagger -0.4 -4.3 75 17 5 16.1 102.66   -2 LegendNANA
11:00 Legend Double Dagger -0.7 -3.8 80   0 16.1 102.64     LegendNANA
12:00 Legend Double Dagger 0.2 -5.1 67 33 5 16.1 102.61     LegendNANA
13:00 Legend Double Dagger -0.6 -3.9 78 LegendMM 4 16.1 102.61   -2 LegendNANA
14:00 Legend Double Dagger -0.3 -2.4 86 3 17 16.1 102.65   -5 LegendNANA
15:00 Legend Double Dagger -0.8 -2.8 86 LegendMM 4 16.1 102.62   -2 LegendNANA
16:00 Legend Double Dagger -1.4 -2.1 95 7 8 4.0 102.64   -4 Snow
17:00 Legend Double Dagger -1.7 -2.3 96 12 5 2.4 102.61   -4 Snow
18:00 Legend Double Dagger -1.7 -2.1 97 13 5 1.2 102.59   -4 Snow
19:00 Legend Double Dagger -1.6 -2.1 97 LegendMM 8 6.4 102.58   -5 Snow
20:00 Legend Double Dagger -1.2 -1.9 95 2 15 2.8 102.55   -6 Snow
21:00 Legend Double Dagger -1.2 -3.6 84 4 13 16.1 102.54   -5 Snow
22:00 Legend Double Dagger -1.6 -4.0 84 7 8 12.9 102.52   -5 Snow
23:00 Legend Double Dagger -1.7 -3.9 85 7 5 16.1 102.50   -4 Snow

Notes on Data Quality.

Legend

  • E = Estimated
  • M = Missing
  • NA = Not Available
  • ‡ = Partner data that is not subject to review by the National Climate Archives
Date modified: